Regional Weather Roundup
Issued by NWS

Home | Current Version | Previous Version | Text Only | Print | Product List | Glossary Off
Versions: 1 2 3 4 5 6 7 8 9 10 11 12 13 14 15 16 17 18 19 20 21 22 23 24 25 26 27

000
ASUS45 KCYS 010610
RWRWY

WYOMING REGIONAL WEATHER ROUNDUP
NATIONAL WEATHER SERVICE CHEYENNE WY
1200 AM MDT SUN MAY 01 2016

NOTE:  "FAIR" INDICATES FEW OR NO CLOUDS BELOW 12,000 FEET
WITH NO SIGNIFICANT WEATHER AND/OR OBSTRUCTIONS TO VISIBILITY.

WYZ001-010700-
YELLOWSTONE NATIONAL PARK

CITY           SKY/WX    TMP DP  RH WIND       PRES   REMARKS
LK YELLOWSTONE   N/A     31  22  69 VRB3      30.29R
6HR MIN TEMP:  31; 6HR MAX TEMP:  40;

W YELLOWSTONE  NOT AVBL

$$
WYZ002>013-054>058-071-098>099-010700-
NORTHERN WYOMING

CITY           SKY/WX    TMP DP  RH WIND       PRES   REMARKS
JACKSON        FAIR      37  28  70 N14       30.20R WCI  29
CODY           MOCLDY    39  30  70 N6        30.29S WCI  35
GREYBULL       FAIR      42  36  79 CALM      30.27R
6HR MIN TEMP:  42; 6HR MAX TEMP:  56;

WORLAND        CLOUDY    43  36  76 S7        30.26R
6HR MIN TEMP:  43; 6HR MAX TEMP:  48;

SHERIDAN       CLOUDY    42  36  79 CALM      30.30S
6HR MIN TEMP:  42; 6HR MAX TEMP:  48;

BUFFALO          N/A    N/A N/A N/A MISG      30.30R
GILLETTE       FAIR      30  28  92 NW6       30.27S WCI  24
6HR MIN TEMP:  29; 6HR MAX TEMP:  49;

HULETT         CLOUDY    41  30  65 CALM      30.28S
NEWCASTLE      FAIR      34  28  80 N7        30.25R WCI  28

$$
WYZ014>020-022>026-101>103-010700-
CENTRAL WYOMING

CITY           SKY/WX    TMP DP  RH WIND       PRES   REMARKS
BIG PINEY      FAIR      31  25  78 S6        30.22R WCI  25
6HR MIN TEMP:  29; 6HR MAX TEMP:  43;

PINEDALE       FAIR      32  28  86 NW6       30.21S WCI  26
DUBOIS         NOT AVBL
LANDER         CLOUDY    36  34  92 NW3       30.27R
6HR MIN TEMP:  35; 6HR MAX TEMP:  37; 6HR PCP:  0.03;

RIVERTON       MOCLDY    36  33  89 NW9       30.28S WCI  29
6HR MIN TEMP:  36; 6HR MAX TEMP:  41; 6HR PCP:  0.02;

CASPER         CLOUDY    36  31  82 NE14      30.25R WCI  27
6HR MIN TEMP:  31; 6HR MAX TEMP:  40;

DOUGLAS        FAIR      33  30  88 NW3       30.25R
6HR MIN TEMP:  33; 6HR MAX TEMP:  41;


$$
WYZ021-027>030-104>119-010700-
SOUTHERN WYOMING

CITY           SKY/WX    TMP DP  RH WIND       PRES   REMARKS
EVANSTON       CLOUDY    33  26  75 E14G20    30.14S WCI  23
6HR MIN TEMP:  33; 6HR MAX TEMP:  38;

KEMMERER         N/A     32  28  86 E22G31    30.18S WCI  19
FORT BRIDGER   MOCLDY    32  32 100 E17       30.20S WCI  21
ROCK SPRINGS   CLOUDY    33  27  78 E22       30.19S WCI  21
6HR MIN TEMP:  33; 6HR MAX TEMP:  39; 6HR PCP: TRACE;

DIXON          FAIR      34  24  65 NE13      30.16S WCI  25
RAWLINS        CLOUDY    30  26  85 NE9       30.22R WCI  22
6HR MIN TEMP:  30; 6HR MAX TEMP:  35;

SARATOGA       CLOUDY    32  23  69 NE16G26   30.20S WCI  21
LARAMIE        FLURRIES  28  25  88 N10       30.20R WCI  19
6HR MIN TEMP:  27; 6HR MAX TEMP:  30; 6HR PCP:  0.01;

CHEYENNE       LGT SNOW  31  29  92 N10       30.19R FOG     WCI  22
6HR MIN TEMP:  31; 6HR MAX TEMP:  32; 6HR PCP:  0.02;

TORRINGTON     CLOUDY    37  33  85 N5        30.21R WCI  33
6HR MIN TEMP:  37; 6HR MAX TEMP:  40; 6HR PCP:  0.01;

PINE BLUFFS    LGT SNOW  32  32 100 N18G24    30.18S WCI  20

$$




USA.gov is the U.S. government's official web portal to all federal, state and local government web resources and services.